Location: Ç?ral? Körfezi
(36.3984°N, 30.4829°E)
Time: 04:41:44
(UTC+00:00)

NOSS 2-1 (E) - Visible Passes

Search period start: 11 November 2024 00:00
Search period end: 21 November 2024 00:00
Orbit: 385 x 1749 km, 63.3° (Epoch: 07 May)

Date Brightness Start Highest point End Pass type
(mag) Time Alt. Az. Time Alt. Az. Time Alt. Az.
11 Nov 5.8 02:26:18 13° N 02:28:59 22° NE 02:33:07 10° ESE visible
12 Nov 3.9 03:15:41 15° NNW 03:19:19 83° ENE 03:25:25 10° SSE visible
13 Nov 5.2 02:18:41 25° NNE 02:20:15 32° NE 02:25:17 10° ESE visible
13 Nov 5.2 04:05:48 10° WNW 04:09:46 27° WSW 04:14:58 10° S visible
14 Nov 6.6 01:21:44 13° ENE 01:21:44 13° ENE 01:23:29 10° E visible
14 Nov 3.9 03:08:08 28° NW 03:10:33 66° WSW 03:16:42 10° SSE visible
14 Nov 6.0 16:51:34 10° S 16:51:42 11° S 16:51:42 11° S visible
15 Nov 4.5 02:11:12 49° NE 02:11:25 49° ENE 02:17:05 10° SE visible
15 Nov 5.6 03:57:38 10° WNW 04:01:01 18° WSW 04:05:08 10° SSW visible
16 Nov 6.5 01:14:20 16° E 01:14:20 16° E 01:16:09 10° E visible
16 Nov 4.3 03:00:43 38° W 03:01:44 43° WSW 03:07:39 10° S visible
16 Nov 4.8 16:42:12 10° SSW 16:44:21 25° S 16:44:21 25° S visible
17 Nov 4.7 02:03:53 50° SE 02:03:53 50° SE 02:08:34 10° SE visible
17 Nov 5.9 03:50:17 10° W 03:52:09 12° WSW 03:54:21 10° SW visible
17 Nov 5.0 15:44:52 10° SSE 15:46:56 14° ESE 15:47:23 13° ESE visible
17 Nov 6.2 17:33:00 10° WSW 17:33:46 14° WSW 17:33:46 14° WSW visible
18 Nov 6.7 01:07:04 15° ESE 01:07:04 15° ESE 01:08:13 10° ESE visible
18 Nov 5.1 02:53:28 29° SW 02:53:28 29° SW 02:58:14 10° S visible
18 Nov 3.1 16:33:07 10° SSW 16:36:46 68° S 16:36:46 68° S visible
19 Nov 5.7 01:56:40 28° SSE 01:56:40 28° SSE 01:59:44 10° SSE visible
19 Nov 4.5 15:34:43 10° S 15:37:58 22° ESE 15:39:41 16° E visible
19 Nov 6.0 17:24:54 10° W 17:26:03 14° WNW 17:26:03 14° WNW visible
20 Nov 7.0 00:59:52 10° SE 00:59:52 10° SE 00:59:55 10° SE visible
20 Nov 6.1 02:46:17 16° SSW 02:46:17 16° SSW 02:48:22 10° SSW visible
20 Nov 3.5 16:24:15 10° SW 16:28:06 56° WNW 16:28:55 42° N visible
